Wind_Speed
45 45 46 47 48 49 49 50 50 50 50 51 52 53 55 55 56 56 57 57 58 58 58 58 58 58 58 58 57 57 57 57 56 56 57 56 55 55
46 47 47 48 49 50 51 52 52 53 53 53 55 56 57 57 58 58 59 59 59 59 59 59 60 60 60 59 59 59 59 58 58 58 58 57 57 57
48 49 49 49 50 51 52 54 55 56 57 56 57 58 59 59 60 61 61 61 61 61 61 61 61 61 60 60 60 59 59 59 59 58 58 58 57 56
50 51 51 52 53 54 55 56 58 59 60 59 58 60 61 62 63 63 63 63 63 63 62 62 62 61 61 60 60 60 60 60 59 58 58 58 57 57
52 53 54 55 56 57 58 59 60 61 62 63 62 62 63 63 63 64 64 64 64 64 64 63 63 62 62 61 61 60 60 60 60 59 58 57 57 56
54 55 55 56 57 58 60 61 62 62 63 64 64 63 63 64 65 65 65 65 65 64 64 64 63 63 63 62 61 61 60 59 58 58 57 57 57 56
55 55 56 57 59 60 61 62 62 63 64 65 65 65 65 65 66 66 65 65 64 64 64 64 63 62 62 62 62 61 60 58 56 56 55 55 54 54
56 56 57 59 60 61 62 63 64 65 65 66 66 66 66 66 66 65 65 64 63 63 63 62 62 62 62 62 61 60 58 56 55 53 53 52 51 51
56 57 59 60 61 62 63 64 65 66 67 68 68 67 66 65 66 65 64 64 63 62 62 61 61 60 60 60 59 57 55 54 52 51 51 50 49 49
57 58 60 61 62 63 64 65 66 66 67 68 68 66 66 65 65 64 63 63 62 61 61 59 58 58 57 57 56 54 53 51 50 49 48 48 48 48
58 59 61 62 63 64 65 66 66 66 66 66 65 65 64 64 63 63 62 62 60 58 58 58 56 55 54 53 52 51 50 49 48 47 47 47 47 46
58 59 60 62 62 63 64 64 64 63 63 62 62 62 61 61 60 60 60 59 58 57 55 55 54 53 51 49 49 48 47 47 46 46 45 45 45 45
58 58 59 61 61 62 62 62 62 61 60 59 58 58 57 57 57 57 57 56 55 54 52 51 50 48 47 46 45 45 44 44 44 43 43 42 42 42
57 58 59 60 60 60 60 59 59 59 57 56 55 54 53 53 53 53 53 52 51 50 48 47 46 45 44 43 41 41 41 41 40 40 40 39 39 39
58 58 58 58 58 57 56 56 56 55 54 53 52 51 51 51 50 50 49 48 47 45 44 44 43 42 40 39 38 37 37 37 37 37 36 36 37 37
57 57 56 56 55 54 53 53 52 52 51 50 50 49 48 47 47 46 45 44 42 41 40 40 39 38 36 35 34 33 34 34 34 33 33 33 33 34
55 54 53 52 51 51 50 49 49 49 48 47 46 45 44 44 42 41 40 39 38 36 35 34 34 33 32 32 31 31 31 31 30 30 30 30 30 31
52 51 50 49 48 47 46 46 46 46 45 44 43 43 41 40 38 37 36 35 33 32 31 30 30 29 29 29 29 29 29 28 28 28 28 28 28 29
50 49 47 46 45 44 44 43 43 42 42 41 41 39 38 36 34 33 32 31 29 28 28 28 28 28 27 27 27 27 27 26 26 27 27 27 27 27
47 46 44 44 43 42 41 41 40 39 39 39 37 35 33 31 30 29 28 27 26 25 25 25 26 25 25 24 24 25 25 25 25 25 25 24 24 25
45 44 43 42 41 40 39 39 38 37 36 35 32 31 29 28 27 26 25 24 23 23 23 24 24 24 23 23 22 23 23 23 23 23 23 23 23 24
42 41 41 40 39 38 37 36 35 34 33 31 29 28 27 25 24 23 23 22 22 22 22 22 23 22 22 21 20 21 21 21 21 21 22 22 23 23
39 39 38 37 37 36 35 34 32 31 29 28 26 25 24 23 22 22 21 21 21 21 21 21 20 20 19 19 19 19 19 19 19 20 21 21 21 21
Wind_Direction
281 281 281 281 282 282 281 282 282 282 283 284 285 286 286 286 287 287 286 286 286 286 285 284 283 283 282 281 280 279 278 277 275 274 273 271 270 269
281 281 281 281 281 282 283 283 284 284 285 285 286 286 286 286 286 287 287 286 286 285 284 283 283 282 282 281 280 279 279 278 277 275 274 272 270 270
282 282 282 282 282 283 284 284 285 285 286 286 286 286 286 286 286 287 286 286 286 285 284 284 283 282 282 281 280 280 279 278 277 275 274 273 271 269
283 283 283 283 284 284 285 285 286 287 287 287 286 286 286 286 286 286 286 286 285 284 284 283 283 282 282 281 280 279 279 278 277 275 274 272 271 269
283 283 283 284 284 285 285 286 287 287 287 287 287 286 286 286 285 285 285 285 285 284 283 283 282 282 281 281 280 279 279 278 277 275 274 272 269 268
283 284 284 284 284 285 286 286 287 287 288 288 287 287 286 285 285 285 285 285 284 284 283 282 281 281 281 280 280 280 280 279 277 275 273 271 269 267
284 284 285 285 285 286 286 287 287 288 288 288 288 288 287 286 286 285 284 284 283 283 281 281 281 280 280 280 280 280 279 278 276 274 272 270 269 266
284 284 285 286 286 287 288 288 288 288 288 289 288 288 288 287 286 285 284 283 282 282 281 280 280 280 280 279 280 279 278 276 275 273 271 269 267 265
285 285 286 286 287 288 288 288 289 289 289 289 289 288 287 287 286 285 284 283 283 282 281 280 279 279 279 279 279 278 277 275 274 272 270 268 265 264
286 286 287 287 288 288 288 289 289 289 289 289 289 289 288 287 286 285 284 283 283 282 282 281 280 279 279 278 278 277 275 273 272 271 269 267 265 263
287 288 288 289 289 289 289 290 290 290 290 290 290 289 288 287 286 285 284 283 283 282 281 281 280 279 278 277 276 275 273 272 272 270 268 267 265 263
288 289 289 290 290 290 291 291 291 291 290 290 290 289 288 287 285 284 284 283 283 282 281 280 279 279 277 276 275 273 272 271 271 270 268 266 264 262
289 290 290 291 291 292 292 292 292 292 291 291 290 289 288 287 285 284 284 284 283 282 281 280 279 277 277 275 273 272 271 270 270 269 267 265 263 261
291 292 292 292 292 292 292 292 292 293 292 292 291 290 289 288 286 285 285 284 283 282 281 279 278 277 277 276 273 270 269 269 268 267 265 264 262 260
293 294 294 294 293 293 293 293 293 293 292 292 291 291 290 288 287 286 285 283 282 281 280 279 278 277 276 275 273 270 268 267 267 266 264 262 261 259
294 294 294 294 294 294 294 294 293 293 293 293 292 292 291 290 289 286 285 283 281 280 280 279 277 276 275 274 272 270 269 267 265 263 262 262 261 258
295 295 294 294 294 294 294 294 294 294 294 294 294 293 292 291 290 287 285 283 281 280 278 277 276 276 274 274 272 270 269 267 264 262 261 260 259 258
296 296 295 295 295 295 295 294 294 295 294 294 294 294 293 292 290 287 284 282 280 279 277 276 275 275 274 273 271 269 268 267 264 263 261 260 259 259
297 297 296 296 296 296 296 296 295 295 295 295 296 295 293 291 290 287 285 282 279 277 276 276 275 276 274 271 270 269 267 266 265 263 261 260 259 258
297 297 297 296 297 297 297 297 296 296 296 297 296 295 293 291 290 287 285 282 280 278 276 276 277 276 275 272 269 267 268 267 265 264 262 259 258 257
295 296 296 296 296 297 296 297 297 297 298 299 296 294 293 291 289 287 284 283 280 278 276 277 278 277 275 272 269 267 268 268 266 263 260 259 257 257
294 295 296 296 297 297 298 299 298 298 297 296 295 294 293 291 289 286 284 282 280 278 278 278 277 275 273 271 269 268 268 267 265 264 263 262 261 258
294 294 295 296 296 297 298 299 298 297 296 295 294 294 293 291 289 286 284 282 281 279 278 278 276 273 272 271 269 269 268 266 265 264 265 264 263 261
Height
5703 5701 5698 5696 5693 5691 5688 5686 5685 5683 5682 5678 5673 5669 5665 5661 5657 5654 5651 5647 5644 5641 5638 5635 5632 5629 5627 5624 5623 5621 5619 5618 5617 5616 5616 5615 5616 5616
5691 5689 5686 5683 5681 5678 5675 5672 5669 5667 5667 5665 5659 5655 5650 5646 5642 5638 5635 5631 5628 5624 5621 5618 5615 5612 5610 5608 5606 5604 5602 5600 5599 5599 5598 5598 5598 5599
5678 5676 5673 5670 5667 5664 5661 5658 5655 5652 5650 5649 5645 5639 5635 5630 5626 5622 5618 5614 5611 5607 5604 5601 5598 5595 5592 5590 5588 5586 5584 5583 5582 5581 5580 5580 5580 5581
5664 5662 5659 5656 5653 5650 5647 5643 5640 5636 5633 5631 5629 5623 5618 5613 5609 5605 5601 5597 5593 5590 5586 5583 5580 5577 5575 5572 5570 5568 5567 5565 5564 5563 5562 5563 5563 5563
5650 5648 5645 5642 5639 5635 5631 5628 5624 5619 5615 5612 5611 5606 5601 5596 5591 5588 5583 5579 5575 5572 5568 5565 5562 5559 5556 5554 5551 5550 5548 5547 5546 5545 5544 5544 5545 5546
5636 5633 5630 5626 5623 5619 5615 5611 5607 5602 5598 5593 5590 5587 5583 5578 5573 5569 5565 5561 5557 5553 5549 5546 5543 5540 5537 5535 5533 5531 5530 5528 5527 5526 5526 5526 5527 5528
5621 5617 5614 5610 5606 5602 5598 5594 5589 5584 5580 5575 5571 5568 5564 5559 5554 5549 5546 5542 5539 5535 5531 5528 5525 5522 5519 5517 5514 5513 5511 5510 5509 5508 5508 5508 5509 5510
5606 5602 5598 5594 5590 5585 5581 5576 5571 5566 5561 5556 5552 5548 5544 5539 5534 5529 5525 5522 5521 5518 5513 5510 5506 5504 5501 5498 5496 5494 5493 5492 5491 5491 5491 5491 5492 5493
5589 5586 5582 5577 5573 5568 5563 5558 5553 5547 5542 5537 5532 5528 5524 5519 5514 5510 5506 5502 5500 5497 5493 5492 5488 5485 5482 5480 5478 5476 5475 5474 5474 5473 5474 5474 5476 5477
5573 5569 5565 5561 5555 5550 5546 5541 5536 5530 5523 5517 5512 5508 5504 5499 5494 5490 5486 5483 5481 5478 5473 5472 5470 5467 5464 5462 5460 5458 5457 5457 5457 5457 5458 5459 5460 5461
5557 5552 5547 5542 5537 5531 5527 5522 5518 5512 5505 5499 5493 5488 5484 5479 5474 5470 5467 5464 5462 5461 5456 5453 5452 5449 5447 5445 5443 5441 5441 5441 5441 5442 5442 5443 5445 5446
5541 5535 5530 5524 5519 5513 5507 5502 5498 5493 5487 5482 5476 5470 5465 5461 5456 5451 5448 5444 5442 5442 5439 5435 5433 5431 5431 5430 5427 5426 5425 5425 5426 5427 5427 5428 5429 5431
5524 5519 5513 5507 5501 5495 5489 5484 5478 5474 5469 5464 5459 5454 5448 5443 5439 5434 5430 5427 5424 5423 5421 5418 5417 5415 5413 5414 5414 5412 5411 5411 5411 5412 5413 5414 5415 5417
5507 5501 5496 5490 5484 5478 5472 5466 5461 5455 5451 5446 5442 5437 5432 5427 5423 5418 5415 5411 5408 5406 5404 5402 5401 5400 5399 5399 5399 5399 5398 5398 5398 5399 5399 5400 5402 5404
5489 5484 5478 5472 5466 5461 5455 5449 5444 5439 5434 5430 5425 5421 5416 5411 5407 5403 5400 5396 5394 5392 5390 5388 5387 5386 5386 5386 5386 5386 5386 5386 5386 5386 5387 5388 5390 5391
5473 5468 5462 5456 5450 5445 5440 5434 5428 5423 5419 5414 5410 5406 5401 5397 5393 5389 5386 5383 5381 5379 5377 5375 5374 5374 5374 5373 5373 5374 5374 5374 5375 5375 5376 5377 5378 5380
5457 5453 5447 5442 5436 5431 5425 5420 5415 5410 5405 5400 5396 5392 5387 5383 5379 5376 5373 5370 5369 5368 5366 5364 5363 5363 5363 5363 5363 5363 5363 5363 5364 5365 5366 5367 5368 5369
5442 5438 5433 5427 5422 5417 5412 5408 5403 5397 5392 5388 5383 5379 5375 5371 5368 5364 5362 5360 5358 5357 5356 5355 5354 5354 5354 5353 5353 5353 5354 5354 5355 5356 5357 5358 5360 5360
5428 5423 5419 5414 5409 5404 5400 5395 5390 5385 5381 5376 5372 5368 5364 5360 5357 5355 5352 5350 5349 5348 5347 5346 5346 5345 5345 5345 5345 5344 5345 5346 5346 5347 5348 5349 5351 5352
5415 5410 5406 5401 5397 5392 5388 5383 5378 5374 5370 5366 5362 5358 5354 5351 5348 5346 5344 5342 5341 5340 5339 5338 5338 5337 5337 5337 5337 5337 5336 5337 5338 5339 5340 5341 5342 5343
5402 5398 5394 5389 5385 5381 5377 5372 5368 5364 5360 5356 5352 5349 5345 5343 5340 5338 5336 5335 5334 5333 5332 5331 5330 5330 5329 5330 5330 5330 5330 5330 5330 5331 5332 5333 5335 5336
5390 5386 5382 5378 5374 5370 5366 5362 5358 5354 5351 5347 5344 5341 5338 5335 5333 5331 5330 5328 5327 5326 5325 5325 5324 5323 5323 5323 5323 5323 5323 5323 5323 5323 5324 5325 5326 5327
5377 5374 5370 5367 5363 5360 5356 5353 5349 5346 5342 5339 5336 5333 5331 5328 5326 5325 5323 5322 5321 5320 5319 5318 5317 5317 5316 5316 5317 5317 5317 5317 5317 5317 5317 5317 5318 5318